| time (UTC) | temp C | wind direction | speed KPH | gust KPH | rain 1hr cm | rain 24hr cm | rain mn cm | humidity % | barometer mb |
| 20260906104534 | -17 | 0.0 | 0.0 | 0.00 | 0.00 | 0.00 | 1013.8 | ||
| 20260906104017 | -17 | 0.0 | 0.0 | 0.00 | 0.00 | 0.00 | 1013.7 | ||
| 20260906103518 | -17 | 0.0 | 0.0 | 0.00 | 0.00 | 0.00 | 1013.6 | ||
| 20260906103035 | -17 | 0.0 | 0.0 | 0.00 | 0.00 | 0.00 | 1013.5 | ||
| 20260906102519 | -17 | 0.0 | 0.0 | 0.00 | 0.00 | 0.00 | 1013.6 | ||
| 20260906102023 | -17 | 0.0 | 0.0 | 0.00 | 0.00 | 0.00 | 1013.6 | ||
| 20260906101533 | -17 | 0.0 | 0.0 | 0.00 | 0.00 | 0.00 | 1013.5 | ||
| 20260906101019 | -17 | 0.0 | 0.0 | 0.00 | 0.00 | 0.00 | 1013.4 | ||
| 20260906100523 | -17 | 0.0 | 0.0 | 0.00 | 0.00 | 0.00 | 1013.4 | ||
| 20260906100034 | -17 | 0.0 | 0.0 | 0.00 | 0.00 | 0.00 | 1013.5 | ||
| 20260906095517 | -17 | 0.0 | 0.0 | 0.00 | 0.00 | 0.00 | 1013.4 | ||
| 20260906095016 | -17 | 0.0 | 0.0 | 0.00 | 0.00 | 0.00 | 1013.4 | ||
| 20260906094532 | -17 | 0.0 | 0.0 | 0.00 | 0.00 | 0.00 | 1013.4 | ||
| 20260906094014 | -17 | 0.0 | 0.0 | 0.00 | 0.00 | 0.00 | 1013.4 | ||
| 20260906093519 | -17 | 0.0 | 0.0 | 0.00 | 0.00 | 0.00 | 1013.4 | ||
| 20260906093038 | -17 | 0.0 | 0.0 | 0.00 | 0.00 | 0.00 | 1013.3 | ||
| 20260906092518 | -17 | 0.0 | 0.0 | 0.00 | 0.00 | 0.00 | 1013.2 | ||
| 20260906092024 | -17 | 0.0 | 0.0 | 0.00 | 0.00 | 0.00 | 1013.1 | ||
| 20260906091533 | -17 | 0.0 | 0.0 | 0.00 | 0.00 | 0.00 | 1013.1 | ||
| 20260906091017 | -17 | 0.0 | 0.0 | 0.00 | 0.00 | 0.00 | 1013.1 | ||
| 20260906090519 | -17 | 0.0 | 0.0 | 0.00 | 0.00 | 0.00 | 1013.2 | ||
| 20260906090052 | -17 | 0.0 | 0.0 | 0.00 | 0.00 | 0.00 | 1013.1 | ||
| 20260906085518 | -17 | 0.0 | 4.8 | 0.00 | 0.00 | 0.00 | 1013.1 | ||
| 20260906085009 | 23 | 26 | 1.6 | 4.8 | 0.00 | 0.00 | 0.00 | 91 | 1013.1 |
| 20260906084517 | 23 | 28 | 0.0 | 4.8 | 0.00 | 0.00 | 0.00 | 90 | 1013.0 |
| 20260906084011 | 23 | 352 | 1.6 | 4.8 | 0.00 | 0.00 | 0.00 | 90 | 1012.9 |
| 20260906083510 | 23 | 36 | 0.0 | 3.2 | 0.00 | 0.00 | 0.00 | 90 | 1013.0 |
| 20260906083026 | 23 | 47 | 0.0 | 3.2 | 0.00 | 0.00 | 0.00 | 90 | 1013.0 |
| 20260906082511 | 23 | 9 | 0.0 | 4.8 | 0.00 | 0.00 | 0.00 | 90 | 1013.0 |
| 20260906082016 | 23 | 360 | 0.0 | 4.8 | 0.00 | 0.00 | 0.00 | 90 | 1012.9 |
| 20260906081526 | 23 | 22 | 0.0 | 8.0 | 0.00 | 0.00 | 0.00 | 89 | 1012.9 |
| 20260906081013 | 23 | 21 | 3.2 | 8.0 | 0.00 | 0.00 | 0.00 | 89 | 1012.8 |
| 20260906080518 | 23 | 360 | 1.6 | 6.4 | 0.00 | 0.00 | 0.00 | 89 | 1012.8 |
| 20260906080010 | 23 | 329 | 1.6 | 8.0 | 0.00 | 0.00 | 0.00 | 89 | 1012.7 |
| 20260906075505 | 23 | 46 | 3.2 | 8.0 | 0.00 | 0.00 | 0.00 | 88 | 1012.7 |
| 20260906075009 | 23 | 346 | 1.6 | 4.8 | 0.00 | 0.00 | 0.00 | 88 | 1012.7 |
| 20260906074515 | 23 | 350 | 3.2 | 4.8 | 0.00 | 0.00 | 0.00 | 88 | 1012.7 |
| 20260906074010 | 23 | 342 | 3.2 | 6.4 | 0.00 | 0.00 | 0.00 | 87 | 1012.7 |
| 20260906073513 | 23 | 346 | 1.6 | 6.4 | 0.00 | 0.00 | 0.00 | 87 | 1012.7 |
| 20260906073020 | 23 | 295 | 1.6 | 6.4 | 0.00 | 0.00 | 0.00 | 87 | 1012.7 |
| 20260906072512 | 24 | 350 | 3.2 | 8.0 | 0.00 | 0.00 | 0.00 | 87 | 1012.8 |
| 20260906072017 | 24 | 338 | 1.6 | 8.0 | 0.00 | 0.00 | 0.00 | 87 | 1012.8 |
| 20260906071524 | 24 | 348 | 3.2 | 4.8 | 0.00 | 0.00 | 0.00 | 86 | 1012.8 |
| 20260906071014 | 24 | 9 | 1.6 | 6.4 | 0.00 | 0.00 | 0.00 | 86 | 1012.8 |
| 20260906070515 | 24 | 352 | 1.6 | 6.4 | 0.00 | 0.00 | 0.00 | 86 | 1012.9 |
| 20260906070036 | 24 | 21 | 3.2 | 4.8 | 0.00 | 0.00 | 0.00 | 86 | 1012.9 |
| 20260906065515 | 24 | 351 | 0.0 | 6.4 | 0.00 | 0.00 | 0.00 | 86 | 1012.8 |
| 20260906065008 | 25 | 17 | 3.2 | 6.4 | 0.00 | 0.00 | 0.00 | 85 | 1012.9 |
| 20260906064512 | 25 | 5 | 1.6 | 4.8 | 0.00 | 0.00 | 0.00 | 85 | 1013.0 |
| 20260906064012 | 25 | 31 | 1.6 | 4.8 | 0.00 | 0.00 | 0.00 | 85 | 1012.9 |
| 20260906063509 | 25 | 343 | 1.6 | 4.8 | 0.00 | 0.00 | 0.00 | 85 | 1013.0 |
| 20260906063038 | 25 | 309 | 0.0 | 0.0 | 0.00 | 0.00 | 0.00 | 85 | 1013.0 |
| 20260906062512 | 25 | 314 | 0.0 | 4.8 | 0.00 | 0.00 | 0.00 | 84 | 1013.0 |
| 20260906062012 | 25 | 19 | 1.6 | 4.8 | 0.00 | 0.00 | 0.00 | 84 | 1013.1 |
| 20260906061526 | 25 | 350 | 0.0 | 3.2 | 0.00 | 0.00 | 0.00 | 83 | 1013.1 |
| 20260906061015 | 25 | 53 | 0.0 | 3.2 | 0.00 | 0.00 | 0.00 | 83 | 1013.1 |
| 20260906060514 | 26 | 250 | 0.0 | 3.2 | 0.00 | 0.00 | 0.00 | 83 | 1013.2 |
| 20260906060031 | 26 | 10 | 0.0 | 3.2 | 0.00 | 0.00 | 0.00 | 83 | 1013.2 |
| 20260906055519 | 26 | 352 | 0.0 | 6.4 | 0.00 | 0.00 | 0.00 | 83 | 1013.3 |
| 20260906055004 | 26 | 352 | 1.6 | 6.4 | 0.00 | 0.00 | 0.00 | 82 | 1013.3 |
| 20260906054511 | 26 | 9 | 0.0 | 3.2 | 0.00 | 0.00 | 0.00 | 82 | 1013.3 |
| 20260906054006 | 26 | 5 | 0.0 | 4.8 | 0.00 | 0.00 | 0.00 | 82 | 1013.3 |
| 20260906053510 | 26 | 31 | 1.6 | 4.8 | 0.00 | 0.00 | 0.00 | 82 | 1013.3 |
| 20260906053015 | 26 | 5 | 1.6 | 6.4 | 0.00 | 0.00 | 0.00 | 81 | 1013.3 |
| 20260906052513 | 26 | 5 | 0.0 | 8.0 | 0.00 | 0.00 | 0.00 | 81 | 1013.4 |
| 20260906052016 | 26 | 344 | 1.6 | 8.0 | 0.00 | 0.00 | 0.00 | 81 | 1013.4 |
| 20260906051543 | 26 | 13 | 3.2 | 6.4 | 0.00 | 0.00 | 0.00 | 81 | 1013.3 |
| 20260906051012 | 26 | 34 | 1.6 | 6.4 | 0.00 | 0.00 | 0.00 | 81 | 1013.3 |
| 20260906050514 | 27 | 351 | 0.0 | 4.8 | 0.00 | 0.00 | 0.00 | 81 | 1013.2 |
| 20260906050035 | 27 | 38 | 1.6 | 4.8 | 0.00 | 0.00 | 0.00 | 81 | 1013.2 |
| 20260906045504 | 27 | 19 | 0.0 | 3.2 | 0.00 | 0.00 | 0.00 | 80 | 1013.1 |
| 20260906045005 | 27 | 9 | 0.0 | 3.2 | 0.00 | 0.00 | 0.00 | 80 | 1013.0 |
| 20260906044510 | 27 | 9 | 0.0 | 4.8 | 0.00 | 0.00 | 0.00 | 80 | 1013.0 |
| 20260906044013 | 27 | 348 | 1.6 | 6.4 | 0.00 | 0.00 | 0.00 | 80 | 1012.9 |
| 20260906043510 | 27 | 10 | 0.0 | 6.4 | 0.00 | 0.00 | 0.00 | 79 | 1012.9 |
| 20260906043038 | 27 | 352 | 0.0 | 6.4 | 0.00 | 0.00 | 0.00 | 79 | 1012.9 |
| 20260906042507 | 27 | 15 | 1.6 | 8.0 | 0.00 | 0.00 | 0.00 | 79 | 1012.8 |
| 20260906042012 | 27 | 346 | 3.2 | 8.0 | 0.00 | 0.00 | 0.00 | 79 | 1012.7 |
| 20260906041520 | 27 | 329 | 0.0 | 9.7 | 0.00 | 0.00 | 0.00 | 79 | 1012.6 |
| 20260906041015 | 27 | 5 | 1.6 | 9.7 | 0.00 | 0.00 | 0.00 | 79 | 1012.5 |
| 20260906040511 | 27 | 352 | 3.2 | 14.5 | 0.00 | 0.00 | 0.00 | 79 | 1012.6 |
| 20260906040035 | 27 | 28 | 4.8 | 14.5 | 0.00 | 0.00 | 0.00 | 79 | 1012.7 |
| 20260906035513 | 28 | 30 | 3.2 | 9.7 | 0.00 | 0.00 | 0.00 | 79 | 1012.7 |
| 20260906035017 | 28 | 335 | 0.0 | 9.7 | 0.00 | 0.00 | 0.00 | 79 | 1012.7 |
| 20260906034508 | 28 | 352 | 1.6 | 8.0 | 0.00 | 0.00 | 0.00 | 79 | 1012.7 |
| 20260906034010 | 28 | 59 | 3.2 | 6.4 | 0.00 | 0.00 | 0.00 | 79 | 1012.7 |
| 20260906033508 | 28 | 35 | 1.6 | 3.2 | 0.00 | 0.00 | 0.00 | 79 | 1012.7 |
| 20260906033011 | 28 | 69 | 0.0 | 4.8 | 0.00 | 0.00 | 0.00 | 78 | 1012.5 |
| 20260906032510 | 28 | 352 | 0.0 | 4.8 | 0.00 | 0.00 | 0.00 | 78 | 1012.5 |
| 20260906032011 | 28 | 69 | 1.6 | 4.8 | 0.00 | 0.00 | 0.00 | 78 | 1012.5 |
| 20260906031517 | 28 | 360 | 0.0 | 3.2 | 0.00 | 0.00 | 0.00 | 77 | 1012.5 |
| 20260906031012 | 28 | 16 | 0.0 | 3.2 | 0.00 | 0.00 | 0.00 | 77 | 1012.4 |
| 20260906030513 | 28 | 84 | 0.0 | 4.8 | 0.00 | 0.00 | 0.00 | 76 | 1012.3 |
| 20260906030025 | 28 | 57 | 0.0 | 4.8 | 0.00 | 0.00 | 0.00 | 76 | 1012.3 |
| 20260906025520 | 28 | 352 | 0.0 | 4.8 | 0.00 | 0.00 | 0.00 | 75 | 1012.3 |
| 20260906025013 | 28 | 44 | 0.0 | 6.4 | 0.00 | 0.00 | 0.00 | 74 | 1012.2 |
| 20260906024530 | 28 | 113 | 3.2 | 11.3 | 0.00 | 0.00 | 0.00 | 74 | 1012.1 |
| 20260906024017 | 28 | 17 | 6.4 | 12.9 | 0.00 | 0.00 | 0.00 | 74 | 1012.1 |
| 20260906023508 | 28 | 13 | 4.8 | 12.9 | 0.00 | 0.00 | 0.00 | 75 | 1012.0 |
| 20260906023011 | 27 | 360 | 0.0 | 3.2 | 0.00 | 0.00 | 0.00 | 74 | 1012.0 |
| 20260906022507 | 27 | 9 | 0.0 | 0.0 | 0.00 | 0.00 | 0.00 | 74 | 1011.9 |
| 20260906022008 | 27 | 9 | 0.0 | 0.0 | 0.00 | 0.00 | 0.00 | 73 | 1011.8 |
| 20260906021515 | 28 | 9 | 0.0 | 0.0 | 0.00 | 0.00 | 0.00 | 72 | 1011.6 |
| 20260906021012 | 28 | 9 | 0.0 | 0.0 | 0.00 | 0.00 | 0.00 | 72 | 1011.6 |
| 20260906020514 | 28 | 9 | 0.0 | 0.0 | 0.00 | 0.00 | 0.00 | 71 | 1011.6 |
| 20260906020023 | 28 | 9 | 0.0 | 0.0 | 0.00 | 0.00 | 0.00 | 70 | 1011.6 |
| 20260906015512 | 28 | 9 | 0.0 | 0.0 | 0.00 | 0.00 | 0.00 | 71 | 1011.6 |
| 20260906015018 | 28 | 9 | 0.0 | 0.0 | 0.00 | 0.00 | 0.00 | 71 | 1011.6 |
| 20260906014530 | 28 | 9 | 0.0 | 0.0 | 0.00 | 0.00 | 0.00 | 70 | 1011.5 |
| 20260906014013 | 28 | 136 | 0.0 | 0.0 | 0.00 | 0.00 | 0.00 | 69 | 1011.4 |
| 20260906013516 | 29 | 136 | 0.0 | 0.0 | 0.00 | 0.00 | 0.00 | 68 | 1011.4 |
| 20260906013052 | 29 | 136 | 0.0 | 0.0 | 0.00 | 0.00 | 0.00 | 67 | 1011.4 |
| 20260906012507 | 29 | 136 | 0.0 | 0.0 | 0.00 | 0.00 | 0.00 | 67 | 1011.3 |
| 20260906012008 | 29 | 136 | 0.0 | 0.0 | 0.00 | 0.00 | 0.00 | 67 | 1011.3 |
| 20260906011512 | 29 | 136 | 0.0 | 0.0 | 0.00 | 0.00 | 0.00 | 66 | 1011.2 |
| 20260906011016 | 30 | 136 | 0.0 | 0.0 | 0.00 | 0.00 | 0.00 | 66 | 1011.1 |
| 20260906010511 | 30 | 136 | 0.0 | 0.0 | 0.00 | 0.00 | 0.00 | 66 | 1011.1 |
| 20260906010020 | 30 | 132 | 0.0 | 0.0 | 0.00 | 0.00 | 0.00 | 66 | 1011.1 |
| 20260906005520 | 30 | 78 | 0.0 | 0.0 | 0.00 | 0.00 | 0.00 | 66 | 1011.1 |
| 20260906005020 | 30 | 205 | 0.0 | 3.2 | 0.00 | 0.00 | 0.00 | 65 | 1011.1 |
| 20260906004527 | 30 | 280 | 0.0 | 6.4 | 0.00 | 0.00 | 0.00 | 64 | 1011.1 |
| 20260906004024 | 30 | 241 | 0.0 | 6.4 | 0.00 | 0.00 | 0.00 | 64 | 1011.1 |
| 20260906003514 | 30 | 162 | 1.6 | 6.4 | 0.00 | 0.00 | 0.00 | 64 | 1011.1 |
| 20260906003035 | 30 | 346 | 1.6 | 6.4 | 0.00 | 0.00 | 0.00 | 64 | 1011.1 |
| 20260906002521 | 31 | 65 | 0.0 | 0.0 | 0.00 | 0.00 | 0.00 | 62 | 1011.1 |
| 20260906002019 | 32 | 88 | 0.0 | 0.0 | 0.00 | 0.00 | 0.00 | 60 | 1011.2 |
| 20260906001510 | 32 | 47 | 0.0 | 0.0 | 0.00 | 0.00 | 0.00 | 58 | 1011.1 |
| 20260906001011 | 32 | 27 | 0.0 | 1.6 | 0.00 | 0.00 | 0.00 | 57 | 1011.1 |
| 20260906000511 | 33 | 18 | 0.0 | 6.4 | 0.00 | 0.00 | 0.00 | 56 | 1011.0 |
| 20260906000019 | 33 | 26 | 0.0 | 6.4 | 0.00 | 0.00 | 0.00 | 56 | 1011.0 |
| 20260905235511 | 33 | 28 | 0.0 | 6.4 | 0.00 | 0.00 | 0.00 | 55 | 1011.1 |
| 20260905235010 | 33 | 352 | 0.0 | 4.8 | 0.00 | 0.00 | 0.00 | 55 | 1011.1 |
| 20260905234523 | 33 | 344 | 3.2 | 6.4 | 0.00 | 0.00 | 0.00 | 54 | 1011.1 |
| 20260905234016 | 33 | 55 | 0.0 | 8.0 | 0.00 | 0.00 | 0.00 | 54 | 1011.0 |
| 20260905233514 | 33 | 352 | 1.6 | 8.0 | 0.00 | 0.00 | 0.00 | 53 | 1011.0 |
| 20260905233039 | 34 | 29 | 4.8 | 9.7 | 0.00 | 0.00 | 0.00 | 52 | 1010.9 |
| 20260905232515 | 34 | 22 | 3.2 | 11.3 | 0.00 | 0.00 | 0.00 | 51 | 1010.9 |
| 20260905232021 | 35 | 32 | 3.2 | 11.3 | 0.00 | 0.00 | 0.00 | 51 | 1010.8 |
| 20260905231531 | 35 | 24 | 1.6 | 16.1 | 0.00 | 0.00 | 0.00 | 51 | 1010.8 |
| 20260905231018 | 35 | 24 | 3.2 | 16.1 | 0.00 | 0.00 | 0.00 | 50 | 1010.7 |
| 20260905230509 | 35 | 21 | 1.6 | 8.0 | 0.00 | 0.00 | 0.00 | 50 | 1010.7 |
| 20260905230021 | 35 | 9 | 1.6 | 8.0 | 0.00 | 0.00 | 0.00 | 49 | 1010.7 |
| 20260905225511 | 35 | 11 | 1.6 | 12.9 | 0.00 | 0.00 | 0.00 | 48 | 1010.6 |
| 20260905225012 | 35 | 22 | 1.6 | 17.7 | 0.00 | 0.00 | 0.00 | 49 | 1010.6 |
| 20260905224524 | 36 | 341 | 4.8 | 17.7 | 0.00 | 0.00 | 0.00 | 48 | 1010.6 |
| 20260905224012 | 36 | 346 | 4.8 | 22.5 | 0.00 | 0.00 | 0.00 | 49 | 1010.5 |
| 20260905223511 | 36 | 58 | 3.2 | 22.5 | 0.00 | 0.00 | 0.00 | 48 | 1010.4 |
| 20260905223029 | 36 | 327 | 6.4 | 22.5 | 0.00 | 0.00 | 0.00 | 46 | 1010.4 |
| 20260905222516 | 36 | 350 | 8.0 | 14.5 | 0.00 | 0.00 | 0.00 | 45 | 1010.4 |
| 20260905222022 | 36 | 273 | 6.4 | 12.9 | 0.00 | 0.00 | 0.00 | 44 | 1010.4 |
| 20260905221530 | 36 | 327 | 4.8 | 14.5 | 0.00 | 0.00 | 0.00 | 44 | 1010.4 |
| 20260905221019 | 36 | 263 | 6.4 | 14.5 | 0.00 | 0.00 | 0.00 | 44 | 1010.4 |
| 20260905220517 | 36 | 279 | 4.8 | 12.9 | 0.00 | 0.00 | 0.00 | 45 | 1010.4 |
| 20260905220033 | 36 | 352 | 6.4 | 12.9 | 0.00 | 0.00 | 0.00 | 44 | 1010.3 |
| 20260905215511 | 36 | 24 | 4.8 | 12.9 | 0.00 | 0.00 | 0.00 | 44 | 1010.3 |
| 20260905215013 | 36 | 298 | 3.2 | 14.5 | 0.00 | 0.00 | 0.00 | 45 | 1010.3 |
| 20260905214521 | 36 | 332 | 1.6 | 16.1 | 0.00 | 0.00 | 0.00 | 45 | 1010.4 |
| 20260905214014 | 36 | 55 | 6.4 | 16.1 | 0.00 | 0.00 | 0.00 | 45 | 1010.3 |
| 20260905213514 | 36 | 331 | 4.8 | 11.3 | 0.00 | 0.00 | 0.00 | 46 | 1010.3 |
| 20260905213028 | 36 | 343 | 3.2 | 12.9 | 0.00 | 0.00 | 0.00 | 45 | 1010.3 |
| 20260905212513 | 36 | 327 | 4.8 | 14.5 | 0.00 | 0.00 | 0.00 | 45 | 1010.3 |
| 20260905212017 | 36 | 77 | 3.2 | 14.5 | 0.00 | 0.00 | 0.00 | 48 | 1010.3 |
| 20260905211528 | 36 | 320 | 3.2 | 11.3 | 0.00 | 0.00 | 0.00 | 47 | 1010.4 |
| 20260905211014 | 36 | 328 | 3.2 | 16.1 | 0.00 | 0.00 | 0.00 | 48 | 1010.5 |
| 20260905210520 | 37 | 316 | 4.8 | 20.9 | 0.00 | 0.00 | 0.00 | 43 | 1010.5 |
| 20260905210045 | 37 | 339 | 4.8 | 20.9 | 0.00 | 0.00 | 0.00 | 43 | 1010.6 |
| 20260905205518 | 37 | 252 | 12.9 | 17.7 | 0.00 | 0.00 | 0.00 | 43 | 1010.5 |
| 20260905205010 | 37 | 240 | 4.8 | 16.1 | 0.00 | 0.00 | 0.00 | 44 | 1010.6 |
| 20260905204516 | 37 | 10 | 6.4 | 16.1 | 0.00 | 0.00 | 0.00 | 45 | 1010.6 |
| 20260905204011 | 36 | 334 | 1.6 | 8.0 | 0.00 | 0.00 | 0.00 | 45 | 1010.6 |
| 20260905203511 | 36 | 24 | 3.2 | 6.4 | 0.00 | 0.00 | 0.00 | 47 | 1010.5 |
| 20260905203024 | 35 | 331 | 3.2 | 4.8 | 0.00 | 0.00 | 0.00 | 50 | 1010.6 |
| 20260905202503 | 35 | 352 | 0.0 | 3.2 | 0.00 | 0.00 | 0.00 | 50 | 1010.8 |
| 20260905202003 | 35 | 11 | 0.0 | 22.5 | 0.00 | 0.00 | 0.00 | 50 | 1011.0 |
| 20260905201504 | 36 | 36 | 3.2 | 22.5 | 0.00 | 0.00 | 0.00 | 48 | 1011.1 |
| 20260905201006 | 36 | 310 | 3.2 | 9.7 | 0.00 | 0.00 | 0.00 | 45 | 1011.1 |
| 20260905200504 | 37 | 333 | 4.8 | 9.7 | 0.00 | 0.00 | 0.00 | 44 | 1011.1 |
| 20260905200007 | 37 | 309 | 1.6 | 16.1 | 0.00 | 0.00 | 0.00 | 47 | 1011.1 |
| 20260905195508 | 36 | 13 | 3.2 | 16.1 | 0.00 | 0.00 | 0.00 | 46 | 1011.2 |
| 20260905195008 | 36 | 276 | 4.8 | 16.1 | 0.00 | 0.00 | 0.00 | 44 | 1011.3 |
| 20260905194513 | 36 | 290 | 3.2 | 11.3 | 0.00 | 0.00 | 0.00 | 44 | 1011.3 |
| 20260905194011 | 36 | 317 | 4.8 | 11.3 | 0.00 | 0.00 | 0.00 | 44 | 1011.2 |
| 20260905193512 | 36 | 70 | 1.6 | 8.0 | 0.00 | 0.00 | 0.00 | 46 | 1011.3 |
| 20260905193022 | 36 | 280 | 1.6 | 11.3 | 0.00 | 0.00 | 0.00 | 45 | 1011.5 |
| 20260905192512 | 36 | 75 | 0.0 | 11.3 | 0.00 | 0.00 | 0.00 | 46 | 1011.4 |
| 20260905192013 | 37 | 24 | 3.2 | 8.0 | 0.00 | 0.00 | 0.00 | 45 | 1011.5 |
| 20260905191504 | 36 | 295 | 0.0 | 14.5 | 0.00 | 0.00 | 0.00 | 46 | 1011.6 |
| 20260905191004 | 35 | 312 | 1.6 | 14.5 | 0.00 | 0.00 | 0.00 | 46 | 1011.7 |
| 20260905190504 | 36 | 285 | 3.2 | 11.3 | 0.00 | 0.00 | 0.00 | 47 | 1011.8 |
| 20260905190008 | 36 | 352 | 0.0 | 4.8 | 0.00 | 0.00 | 0.00 | 47 | 1011.8 |
| 20260905185508 | 36 | 23 | 1.6 | 11.3 | 0.00 | 0.00 | 0.00 | 47 | 1011.9 |
| 20260905185012 | 36 | 350 | 4.8 | 11.3 | 0.00 | 0.00 | 0.00 | 47 | 1012.0 |
| 20260905184518 | 36 | 342 | 1.6 | 9.7 | 0.00 | 0.00 | 0.00 | 46 | 1012.0 |
| 20260905184010 | 36 | 324 | 1.6 | 12.9 | 0.00 | 0.00 | 0.00 | 46 | 1012.1 |
| 20260905183508 | 36 | 99 | 6.4 | 12.9 | 0.00 | 0.00 | 0.00 | 47 | 1012.2 |
| 20260905183017 | 36 | 315 | 1.6 | 8.0 | 0.00 | 0.00 | 0.00 | 46 | 1012.2 |
| 20260905182512 | 36 | 271 | 1.6 | 12.9 | 0.00 | 0.00 | 0.00 | 48 | 1012.2 |
| 20260905182012 | 36 | 360 | 3.2 | 12.9 | 0.00 | 0.00 | 0.00 | 47 | 1012.2 |
| 20260905181528 | 36 | 267 | 3.2 | 9.7 | 0.00 | 0.00 | 0.00 | 47 | 1012.3 |
| 20260905181015 | 36 | 9 | 1.6 | 8.0 | 0.00 | 0.00 | 0.00 | 47 | 1012.3 |
| 20260905180504 | 36 | 14 | 1.6 | 6.4 | 0.00 | 0.00 | 0.00 | 46 | 1012.3 |
| 20260905180003 | 36 | 321 | 0.0 | 9.7 | 0.00 | 0.00 | 0.00 | 50 | 1012.4 |
| 20260905175504 | 36 | 306 | 0.0 | 9.7 | 0.00 | 0.00 | 0.00 | 50 | 1012.5 |
| 20260905175008 | 35 | 123 | 1.6 | 4.8 | 0.00 | 0.00 | 0.00 | 52 | 1012.6 |
| 20260905174518 | 35 | 150 | 0.0 | 4.8 | 0.00 | 0.00 | 0.00 | 53 | 1012.5 |
| 20260905174011 | 35 | 174 | 0.0 | 4.8 | 0.00 | 0.00 | 0.00 | 50 | 1012.6 |
| 20260905173511 | 35 | 245 | 1.6 | 4.8 | 0.00 | 0.00 | 0.00 | 51 | 1012.7 |
| 20260905173016 | 35 | 153 | 0.0 | 4.8 | 0.00 | 0.00 | 0.00 | 52 | 1012.7 |
| 20260905172512 | 35 | 311 | 1.6 | 9.7 | 0.00 | 0.00 | 0.00 | 50 | 1012.8 |
| 20260905172012 | 35 | 97 | 1.6 | 9.7 | 0.00 | 0.00 | 0.00 | 53 | 1013.0 |
| 20260905171527 | 34 | 183 | 4.8 | 9.7 | 0.00 | 0.00 | 0.00 | 53 | 1013.2 |
| 20260905171011 | 35 | 352 | 1.6 | 6.4 | 0.00 | 0.00 | 0.00 | 56 | 1013.3 |
| 20260905170516 | 34 | 118 | 0.0 | 4.8 | 0.00 | 0.00 | 0.00 | 54 | 1013.3 |
| 20260905170026 | 34 | 177 | 1.6 | 6.4 | 0.00 | 0.00 | 0.00 | 53 | 1013.4 |
| 20260905165507 | 34 | 244 | 3.2 | 6.4 | 0.00 | 0.00 | 0.00 | 54 | 1013.4 |
| 20260905165008 | 33 | 262 | 1.6 | 6.4 | 0.00 | 0.00 | 0.00 | 55 | 1013.4 |
| 20260905164507 | 33 | 133 | 3.2 | 6.4 | 0.00 | 0.00 | 0.00 | 55 | 1013.5 |
| 20260905164004 | 33 | 190 | 1.6 | 9.7 | 0.00 | 0.00 | 0.00 | 56 | 1013.5 |
| 20260905163508 | 33 | 198 | 0.0 | 11.3 | 0.00 | 0.00 | 0.00 | 57 | 1013.5 |
| 20260905163012 | 33 | 173 | 1.6 | 11.3 | 0.00 | 0.00 | 0.00 | 57 | 1013.6 |
| 20260905162507 | 32 | 171 | 4.8 | 11.3 | 0.00 | 0.00 | 0.00 | 58 | 1013.5 |
| 20260905162013 | 32 | 202 | 6.4 | 11.3 | 0.00 | 0.00 | 0.00 | 58 | 1013.5 |
| 20260905161534 | 33 | 101 | 4.8 | 8.0 | 0.00 | 0.00 | 0.00 | 59 | 1013.6 |
| 20260905161012 | 33 | 139 | 3.2 | 6.4 | 0.00 | 0.00 | 0.00 | 60 | 1013.6 |
| 20260905160511 | 32 | 139 | 1.6 | 8.0 | 0.00 | 0.00 | 0.00 | 59 | 1013.6 |
| 20260905160028 | 33 | 48 | 1.6 | 8.0 | 0.00 | 0.00 | 0.00 | 59 | 1013.7 |
| 20260905155514 | 32 | 348 | 0.0 | 3.2 | 0.00 | 0.00 | 0.00 | 58 | 1013.9 |
| 20260905155013 | 32 | 63 | 0.0 | 4.8 | 0.00 | 0.00 | 0.00 | 60 | 1014.0 |
| 20260905154504 | 32 | 175 | 0.0 | 6.4 | 0.00 | 0.00 | 0.00 | 62 | 1014.0 |
| 20260905154009 | 32 | 39 | 0.0 | 9.7 | 0.00 | 0.00 | 0.00 | 60 | 1013.9 |
| 20260905153507 | 32 | 182 | 3.2 | 9.7 | 0.00 | 0.00 | 0.00 | 61 | 1013.9 |
| 20260905153014 | 32 | 343 | 1.6 | 6.4 | 0.00 | 0.00 | 0.00 | 61 | 1013.9 |
| 20260905152510 | 32 | 36 | 3.2 | 6.4 | 0.00 | 0.00 | 0.00 | 62 | 1013.9 |
| 20260905152007 | 32 | 44 | 1.6 | 4.8 | 0.00 | 0.00 | 0.00 | 62 | 1014.0 |
| 20260905151519 | 31 | 352 | 0.0 | 3.2 | 0.00 | 0.00 | 0.00 | 64 | 1014.0 |
| 20260905151012 | 32 | 160 | 0.0 | 4.8 | 0.00 | 0.00 | 0.00 | 64 | 1013.8 |
| 20260905150511 | 32 | 126 | 0.0 | 6.4 | 0.00 | 0.00 | 0.00 | 63 | 1013.8 |
| 20260905150037 | 31 | 126 | 3.2 | 6.4 | 0.00 | 0.00 | 0.00 | 65 | 1013.8 |
| 20260905145513 | 31 | 66 | 3.2 | 4.8 | 0.00 | 0.00 | 0.00 | 63 | 1013.9 |
| 20260905145014 | 31 | 41 | 0.0 | 6.4 | 0.00 | 0.00 | 0.00 | 64 | 1014.0 |
| 20260905144533 | 31 | 267 | 1.6 | 8.0 | 0.00 | 0.00 | 0.00 | 63 | 1013.9 |
| 20260905144017 | 31 | 349 | 0.0 | 8.0 | 0.00 | 0.00 | 0.00 | 64 | 1013.9 |
| 20260905143504 | 30 | 33 | 0.0 | 6.4 | 0.00 | 0.00 | 0.00 | 65 | 1014.1 |
| 20260905143008 | 30 | 341 | 0.0 | 3.2 | 0.00 | 0.00 | 0.00 | 65 | 1014.0 |
| 20260905142510 | 30 | 5 | 1.6 | 3.2 | 0.00 | 0.00 | 0.00 | 65 | 1013.8 |
| 20260905142013 | 31 | 223 | 0.0 | 4.8 | 0.00 | 0.00 | 0.00 | 66 | 1013.8 |
| 20260905141512 | 30 | 352 | 1.6 | 4.8 | 0.00 | 0.00 | 0.00 | 66 | 1013.9 |
| 20260905141010 | 30 | 5 | 1.6 | 4.8 | 0.00 | 0.00 | 0.00 | 66 | 1013.7 |
| 20260905140512 | 30 | 329 | 1.6 | 4.8 | 0.00 | 0.00 | 0.00 | 65 | 1013.7 |
| 20260905140023 | 30 | 346 | 1.6 | 9.7 | 0.00 | 0.00 | 0.00 | 66 | 1013.7 |
| 20260905135512 | 30 | 352 | 1.6 | 9.7 | 0.00 | 0.00 | 0.00 | 68 | 1013.6 |
| 20260905135014 | 29 | 200 | 0.0 | 4.8 | 0.00 | 0.00 | 0.00 | 70 | 1013.6 |
| 20260905134529 | 28 | 206 | 0.0 | 4.8 | 0.00 | 0.00 | 0.00 | 71 | 1013.7 |
| 20260905134016 | 28 | 169 | 0.0 | 3.2 | 0.00 | 0.00 | 0.00 | 72 | 1013.8 |
| 20260905133514 | 28 | 202 | 0.0 | 3.2 | 0.00 | 0.00 | 0.00 | 73 | 1013.8 |
| 20260905133030 | 28 | 184 | 1.6 | 3.2 | 0.00 | 0.00 | 0.00 | 74 | 1013.9 |
| 20260905132507 | 27 | 210 | 1.6 | 4.8 | 0.00 | 0.00 | 0.00 | 76 | 1013.8 |
| 20260905132008 | 27 | 161 | 1.6 | 4.8 | 0.00 | 0.00 | 0.00 | 76 | 1013.8 |
| 20260905131529 | 27 | 173 | 3.2 | 4.8 | 0.00 | 0.00 | 0.00 | 74 | 1013.8 |
| 20260905131010 | 27 | 185 | 1.6 | 4.8 | 0.00 | 0.00 | 0.00 | 75 | 1013.9 |
| 20260905130509 | 27 | 196 | 0.0 | 0.0 | 0.00 | 0.00 | 0.00 | 77 | 1013.9 |
| 20260905130019 | 27 | 225 | 0.0 | 3.2 | 0.00 | 0.00 | 0.00 | 77 | 1013.9 |
| 20260905125512 | 26 | 165 | 0.0 | 3.2 | 0.00 | 0.00 | 0.00 | 77 | 1014.0 |
| 20260905125014 | 26 | 178 | 0.0 | 3.2 | 0.00 | 0.00 | 0.00 | 77 | 1014.0 |
| 20260905124526 | 26 | 147 | 0.0 | 3.2 | 0.00 | 0.00 | 0.00 | 78 | 1014.0 |
| 20260905124015 | 26 | 153 | 0.0 | 3.2 | 0.00 | 0.00 | 0.00 | 78 | 1013.9 |
| 20260905123513 | 26 | 153 | 0.0 | 1.6 | 0.00 | 0.00 | 0.00 | 78 | 1013.8 |
| 20260905123038 | 26 | 240 | 0.0 | 0.0 | 0.00 | 0.00 | 0.00 | 77 | 1013.9 |
| 20260905122518 | 26 | 240 | 0.0 | 0.0 | 0.00 | 0.00 | 0.00 | 77 | 1014.0 |
| 20260905122016 | 26 | 240 | 0.0 | 0.0 | 0.00 | 0.00 | 0.00 | 77 | 1014.0 |
| 20260905121537 | 26 | 254 | 0.0 | 0.0 | 0.00 | 0.00 | 0.00 | 77 | 1013.8 |
| 20260905121019 | -17 | 0.0 | 0.0 | 0.00 | 0.00 | 0.00 | 1013.8 | ||
| 20260905120520 | -17 | 0.0 | 0.0 | 0.00 | 0.00 | 0.00 | 1013.7 | ||
| 20260905120048 | -17 | 0.0 | 0.0 | 0.00 | 0.00 | 0.00 | 1013.7 | ||
| 20260905115519 | -17 | 0.0 | 0.0 | 0.00 | 0.00 | 0.00 | 1013.8 | ||
| 20260905115018 | -17 | 0.0 | 0.0 | 0.00 | 0.00 | 0.00 | 1013.7 | ||
| 20260905114535 | -17 | 0.0 | 0.0 | 0.00 | 0.00 | 0.00 | 1013.6 | ||
| 20260905114018 | -17 | 0.0 | 0.0 | 0.00 | 0.00 | 0.00 | 1013.5 | ||
| 20260905113519 | -17 | 0.0 | 0.0 | 0.00 | 0.00 | 0.00 | 1013.5 | ||
| 20260905113037 | -17 | 0.0 | 0.0 | 0.00 | 0.00 | 0.00 | 1013.4 | ||
| 20260905112520 | -17 | 0.0 | 0.0 | 0.00 | 0.00 | 0.00 | 1013.4 | ||
| 20260905112021 | -17 | 0.0 | 0.0 | 0.00 | 0.00 | 0.00 | 1013.4 | ||
| 20260905111545 | -17 | 0.0 | 0.0 | 0.00 | 0.00 | 0.00 | 1013.3 | ||
| 20260905111019 | -17 | 0.0 | 0.0 | 0.00 | 0.00 | 0.00 | 1013.3 | ||
| 20260905110518 | -17 | 0.0 | 0.0 | 0.00 | 0.00 | 0.00 | 1013.1 | ||
| 20260905110039 | -17 | 0.0 | 0.0 | 0.00 | 0.00 | 0.00 | 1013.1 | ||
| 20260905105521 | -17 | 0.0 | 0.0 | 0.00 | 0.00 | 0.00 | 1013.1 | ||
| 20260905105021 | -17 | 0.0 | 0.0 | 0.00 | 0.00 | 0.00 | 1013.0 |